TimeAST,TemperatureF,Dew PointF,Humidity,Sea Level PressureIn,VisibilityMPH,Wind Direction,Wind SpeedMPH,Gust SpeedMPH,PrecipitationIn,Events,Conditions,WindDirDegrees,DateUTC
12:00 AM,75.2,66.2,73,29.98,6.2,East,4.6,-,N/A,,Scattered Clouds,100,2012-12-23 04:00:00
1:00 AM,75.2,64.4,69,29.98,6.2,East,5.8,-,N/A,,Partly Cloudy,80,2012-12-23 05:00:00
2:00 AM,74,65,66,29.97,19,,2.3,,,,Partly Cloudy,,2012-12-23 06:00:00
2:00 AM,75.2,64.4,69,29.95,6.2,Variable,2.3,-,N/A,,Partly Cloudy,0,2012-12-23 06:00:00
3:00 AM,75.2,66.2,73,29.95,6.2,NE,4.6,-,N/A,,Scattered Clouds,50,2012-12-23 07:00:00
4:00 AM,75.2,66.2,73,29.92,6.2,NE,4.6,-,N/A,,Scattered Clouds,50,2012-12-23 08:00:00
5:00 AM,76,67,68,29.95,9,ENE,6.9,,,Rain,Light Rain Showers,70,2012-12-23 09:00:00
5:00 AM,77.0,68.0,74,29.95,6.2,ENE,6.9,-,N/A,Rain,Light Rain Showers,70,2012-12-23 09:00:00
6:00 AM,77.0,66.2,69,29.95,6.2,NE,6.9,-,N/A,,Mostly Cloudy,50,2012-12-23 10:00:00
7:00 AM,77.0,66.2,69,29.98,6.2,ENE,8.1,-,N/A,,Mostly Cloudy,70,2012-12-23 11:00:00
8:00 AM,78,67,60,30.00,25,East,9.2,,,,Partly Cloudy,80,2012-12-23 12:00:00
8:00 AM,78.8,66.2,65,29.98,6.2,East,9.2,-,N/A,,Mostly Cloudy,80,2012-12-23 12:00:00
9:00 AM,78.8,66.2,65,30.01,6.2,ENE,9.2,-,N/A,,Mostly Cloudy,70,2012-12-23 13:00:00
10:00 AM,78.8,66.2,65,30.04,6.2,East,9.2,-,N/A,,Partly Cloudy,80,2012-12-23 14:00:00
11:00 AM,80,66,53,30.02,25,East,11.5,,,,Overcast,90,2012-12-23 15:00:00
11:00 AM,80.6,66.2,61,30.01,6.2,ENE,11.5,-,N/A,,Partly Cloudy,70,2012-12-23 15:00:00
12:00 PM,80.6,66.2,61,30.01,6.2,East,8.1,-,N/A,,Partly Cloudy,80,2012-12-23 16:00:00
1:00 PM,78.8,64.4,61,29.98,6.2,East,10.4,-,N/A,,Partly Cloudy,90,2012-12-23 17:00:00
2:00 PM,79,65,54,29.97,28,East,11.5,,,,Mostly Cloudy,90,2012-12-23 18:00:00
2:00 PM,78.8,66.2,65,29.95,6.2,East,9.2,-,N/A,,Mostly Cloudy,80,2012-12-23 18:00:00
3:00 PM,78.8,64.4,61,29.95,6.2,East,9.2,-,N/A,,Partly Cloudy,90,2012-12-23 19:00:00
4:00 PM,80.6,64.4,58,29.95,6.2,East,11.5,-,N/A,,Scattered Clouds,80,2012-12-23 20:00:00
5:00 PM,79,63,48,29.96,25,East,12.7,,,,Scattered Clouds,80,2012-12-23 21:00:00
5:00 PM,78.8,62.6,57,29.95,6.2,East,10.4,-,N/A,,Partly Cloudy,80,2012-12-23 21:00:00
6:00 PM,77.0,62.6,61,29.95,6.2,ENE,9.2,-,N/A,,Partly Cloudy,70,2012-12-23 22:00:00
7:00 PM,77.0,64.4,65,29.98,6.2,East,6.9,-,N/A,,Partly Cloudy,90,2012-12-23 23:00:00
8:00 PM,77.0,64.4,65,29.98,6.2,East,6.9,-,N/A,,Partly Cloudy,80,2012-12-24 00:00:00
9:00 PM,77.0,64.4,65,29.98,6.2,East,9.2,-,N/A,,Partly Cloudy,90,2012-12-24 01:00:00
10:00 PM,77.0,64.4,65,30.01,6.2,East,9.2,-,N/A,,Partly Cloudy,80,2012-12-24 02:00:00
11:00 PM,77,64,56,30.00,19,East,9.2,,,,Scattered Clouds,80,2012-12-24 03:00:00
11:00 PM,77.0,64.4,65,29.98,6.2,ENE,10.4,-,N/A,,Partly Cloudy,70,2012-12-24 03:00:00